User: anonymous   Login
Location: Morlupo
(42.1333°N, 12.5000°E)
Time: 23:18:24
(UTC+00:00)
Language:

HJ-1C - Orbit

View from above orbital plane
View from above orbital plane
View from above satellite
View from above satellite

Ground track
Ground track

The orbit data is extracted from the following two-line orbital elements,

1 38997U 12064A   20332.58016449 +.00004772 +00000-0 +10988-3 0  9995
2 38997 097.1403 359.5945 0010907 126.6591 032.8983 15.43036489450936
Epoch (UTC): 27 November 2020 13:55:26
Eccentricity: 0.0010907
inclination: 97.1403°
perigee height: 430 km
apogee height: 444 km
right ascension of ascending node: 359.5945°
argument of perigee: 126.6591°
revolutions per day: 15.43036489
mean anomaly at epoch: 32.8983°
orbit number at epoch: 45093

The dashed part of the orbit path shows where the satellite is in the earth's shadow,  

DLR